XW-2C (40906 NORAD) Tracking and Keplerian Element Data

This shows tracking and keplerian element data for the satellite.

Feedback or suggestion? Click here.




ElementValue
Catalog40906
NameXW-2C
Epoch Orbit19749
Epoch Day106.941949
Epoch Year2019
RAAN110.0672
Inclination97.4682
Eccentricity0.0016762
Argument of Perigee59.881
Mean Anonmoly358.3687
Mean Motion15.15589193
Decay Rate8.72E-06
L11 40906U 15049H 19106.94194900 .00000872 00000-0 49309-4 0 9997
L22 40906 97.4682 110.0672 0016762 59.8810 358.3687 15.15589193197494

Live tracking and technical data element details for XW-2C (NORAD 40906). XW-2C can be tracked NOW for your location showing map with azimuth and elevation plus other details from your city location.

Track the satellite on the map from your city or location and see movement details for azimuth, elevation, latitude, longitude, range, height, and movement on the map or in text.







IsCatalogInMostPopularTable: catalog: 40906, numindb: 152
Update: records affected: 1



GetName: 40906 XW-2C

Hit Count: updated at: Sat, 20 Apr 2019 00:12:42 GMT